Location: Grisols
(45.0093°N, 3.1167°E)
Time: 05:44:12
(UTC+00:00)

ADEOS Rocket - Pass Details

Date: 21 October 2019
Orbit: 859 x 1306 km, 98.7° (Epoch: 13 November)

Event Time Altitude Azimuth Distance (km) Brightness Sun altitude
Rises 19:41:25 0° 13° (NNE) 4,293 6.4 -30.3°
Reaches altitude 10° 19:44:11 10° 14° (NNE) 3,298 5.8 -30.7°
Maximum altitude 19:51:53 89° 107° (ESE) 1,231 3.3 -32.0°
Enters shadow 19:54:14 48° 195° (SSW) 1,525 3.8 -32.4°
Exits shadow 19:57:29 18° 196° (SSW) 2,516 5.1 -33.0°
Drops below altitude 10° 19:58:56 10° 196° (SSW) 3,029 5.5 -33.2°
Sets 20:01:23 0° 196° (SSW) 3,927 6.1 -33.6°
